| time (UTC) | temp C | wind direction | speed KPH | gust KPH | rain 1hr cm | rain 24hr cm | rain mn cm | humidity % | barometer mb |
| 20260505101538 | 13 | 98 | 1.6 | 3.2 | 0.13 | 0.13 | 0.13 | 90 | 1011.8 |
| 20260505100518 | 14 | 54 | 0.0 | 3.2 | 0.10 | 0.10 | 0.10 | 88 | 1011.9 |
| 20260505095517 | 15 | 69 | 0.0 | 3.2 | 0.05 | 0.05 | 0.05 | 85 | 1012.0 |
| 20260505094518 | 16 | 140 | 1.6 | 4.8 | 0.05 | 0.05 | 0.05 | 78 | 1012.0 |
| 20260505093518 | 16 | 73 | 1.6 | 4.8 | 0.00 | 0.00 | 0.00 | 68 | 1011.5 |
| 20260505092518 | 16 | 27 | 0.0 | 3.2 | 0.00 | 0.00 | 0.00 | 67 | 1011.0 |
| 20260505091518 | 16 | 35 | 1.6 | 3.2 | 0.00 | 0.00 | 0.00 | 65 | 1010.8 |
| 20260505090518 | 16 | 30 | 1.6 | 3.2 | 0.00 | 0.00 | 0.00 | 65 | 1010.2 |
| 20260505085516 | 16 | 21 | 1.6 | 4.8 | 0.00 | 0.00 | 0.00 | 64 | 1010.1 |
| 20260505084519 | 16 | 53 | 1.6 | 6.4 | 0.00 | 0.00 | 0.00 | 63 | 1010.0 |
| 20260505083516 | 17 | 29 | 1.6 | 4.8 | 0.00 | 0.00 | 0.00 | 63 | 1009.9 |
| 20260505082519 | 17 | 31 | 1.6 | 9.7 | 0.00 | 0.00 | 0.00 | 61 | 1009.6 |
| 20260505081519 | 17 | 40 | 1.6 | 6.4 | 0.00 | 0.00 | 0.00 | 61 | 1009.3 |
| 20260505080520 | 17 | 43 | 1.6 | 4.8 | 0.00 | 0.00 | 0.00 | 60 | 1009.1 |
| 20260505075517 | 17 | 24 | 3.2 | 6.4 | 0.00 | 0.00 | 0.00 | 60 | 1009.1 |
| 20260505074516 | 17 | 22 | 1.6 | 8.0 | 0.00 | 0.00 | 0.00 | 61 | 1009.2 |
| 20260505073520 | 17 | 12 | 3.2 | 8.0 | 0.00 | 0.00 | 0.00 | 60 | 1009.1 |
| 20260505072517 | 17 | 31 | 3.2 | 8.0 | 0.00 | 0.00 | 0.00 | 59 | 1008.9 |
| 20260505071517 | 17 | 38 | 3.2 | 8.0 | 0.00 | 0.00 | 0.00 | 59 | 1008.9 |
| 20260505070517 | 17 | 20 | 3.2 | 9.7 | 0.00 | 0.00 | 0.00 | 59 | 1009.0 |
| 20260505065538 | 18 | 18 | 3.2 | 9.7 | 0.00 | 0.00 | 0.00 | 59 | 1009.2 |
| 20260505064520 | 18 | 12 | 3.2 | 9.7 | 0.00 | 0.00 | 0.00 | 59 | 1009.2 |
| 20260505063517 | 18 | 19 | 3.2 | 12.9 | 0.00 | 0.00 | 0.00 | 58 | 1009.2 |
| 20260505062518 | 18 | 39 | 3.2 | 9.7 | 0.00 | 0.00 | 0.00 | 59 | 1009.1 |
| 20260505061518 | 18 | 0 | 3.2 | 9.7 | 0.00 | 0.00 | 0.00 | 58 | 1009.1 |
| 20260505060518 | 18 | 9 | 3.2 | 14.5 | 0.00 | 0.00 | 0.00 | 59 | 1008.9 |
| 20260505055518 | 18 | 16 | 3.2 | 6.4 | 0.00 | 0.00 | 0.00 | 59 | 1008.9 |
| 20260505054538 | 18 | 18 | 3.2 | 8.0 | 0.00 | 0.00 | 0.00 | 59 | 1008.7 |
| 20260505053518 | 18 | 25 | 1.6 | 8.0 | 0.00 | 0.00 | 0.00 | 60 | 1008.7 |
| 20260505052519 | 18 | 17 | 3.2 | 11.3 | 0.00 | 0.00 | 0.00 | 59 | 1008.7 |
| 20260505051539 | 18 | 3 | 3.2 | 8.0 | 0.00 | 0.00 | 0.00 | 59 | 1008.7 |
| 20260505050516 | 18 | 21 | 3.2 | 9.7 | 0.00 | 0.00 | 0.00 | 59 | 1008.7 |
| 20260505041516 | 18 | 22 | 3.2 | 8.0 | 0.00 | 0.00 | 0.00 | 60 | 1009.3 |
| 20260505040536 | 18 | 32 | 1.6 | 6.4 | 0.00 | 0.00 | 0.00 | 60 | 1009.3 |
| 20260505035520 | 18 | 1 | 3.2 | 8.0 | 0.00 | 0.00 | 0.00 | 61 | 1009.3 |
| 20260505034520 | 18 | 9 | 3.2 | 8.0 | 0.00 | 0.00 | 0.00 | 62 | 1009.3 |
| 20260505033517 | 17 | 57 | 1.6 | 4.8 | 0.00 | 0.00 | 0.00 | 62 | 1009.3 |
| 20260505032517 | 17 | 26 | 1.6 | 4.8 | 0.00 | 0.00 | 0.00 | 63 | 1009.2 |
| 20260505031517 | 17 | 63 | 1.6 | 6.4 | 0.00 | 0.00 | 0.00 | 63 | 1009.2 |
| 20260505030520 | 18 | 19 | 1.6 | 6.4 | 0.00 | 0.00 | 0.00 | 63 | 1009.1 |
| 20260505025520 | 18 | 23 | 1.6 | 6.4 | 0.00 | 0.00 | 0.00 | 61 | 1009.0 |
| 20260505024537 | 18 | 15 | 1.6 | 4.8 | 0.00 | 0.00 | 0.00 | 60 | 1008.8 |
| 20260505023518 | 19 | 17 | 1.6 | 4.8 | 0.00 | 0.00 | 0.00 | 60 | 1008.7 |
| 20260505022518 | 19 | 22 | 1.6 | 6.4 | 0.00 | 0.00 | 0.00 | 59 | 1008.6 |
| 20260505021518 | 19 | 26 | 1.6 | 4.8 | 0.00 | 0.00 | 0.00 | 59 | 1008.5 |
| 20260505020518 | 19 | 74 | 1.6 | 8.0 | 0.00 | 0.00 | 0.00 | 58 | 1008.3 |
| 20260505015518 | 18 | 21 | 1.6 | 8.0 | 0.00 | 0.00 | 0.00 | 59 | 1008.0 |
| 20260505014518 | 18 | 30 | 1.6 | 8.0 | 0.00 | 0.00 | 0.00 | 60 | 1007.8 |
| 20260505013518 | 18 | 11 | 1.6 | 4.8 | 0.00 | 0.00 | 0.00 | 61 | 1007.8 |
| 20260505012518 | 19 | 60 | 1.6 | 4.8 | 0.00 | 0.00 | 0.00 | 60 | 1007.8 |
| 20260505011519 | 19 | 68 | 1.6 | 4.8 | 0.00 | 0.00 | 0.00 | 60 | 1007.7 |
| 20260505010556 | 20 | 37 | 1.6 | 3.2 | 0.00 | 0.00 | 0.00 | 59 | 1007.7 |
| 20260505005515 | 20 | 37 | 1.6 | 9.7 | 0.00 | 0.00 | 0.00 | 57 | 1007.7 |
| 20260505004519 | 21 | 44 | 1.6 | 4.8 | 0.00 | 0.00 | 0.00 | 55 | 1007.6 |
| 20260505003516 | 21 | 32 | 1.6 | 8.0 | 0.00 | 0.00 | 0.00 | 54 | 1007.7 |
| 20260505002519 | 21 | 9 | 3.2 | 8.0 | 0.00 | 0.00 | 0.00 | 54 | 1007.7 |
| 20260505001519 | 21 | 8 | 3.2 | 11.3 | 0.00 | 0.03 | 0.00 | 53 | 1007.8 |
| 20260505000516 | 21 | 4 | 3.2 | 11.3 | 0.00 | 0.03 | 0.00 | 53 | 1007.9 |
| 20260504235517 | 22 | 101 | 1.6 | 4.8 | 0.00 | 0.03 | 0.00 | 52 | 1008.1 |
| 20260504234517 | 22 | 58 | 1.6 | 4.8 | 0.00 | 0.03 | 0.00 | 51 | 1008.1 |
| 20260504233519 | 22 | 19 | 1.6 | 6.4 | 0.00 | 0.03 | 0.00 | 51 | 1008.3 |
| 20260504232557 | 22 | 76 | 1.6 | 4.8 | 0.00 | 0.03 | 0.00 | 52 | 1008.5 |
| 20260504231517 | 22 | 27 | 1.6 | 8.0 | 0.00 | 0.03 | 0.00 | 50 | 1008.6 |
| 20260504230558 | 22 | 335 | 1.6 | 8.0 | 0.00 | 0.03 | 0.00 | 49 | 1008.7 |
| 20260504225517 | 23 | 359 | 3.2 | 12.9 | 0.00 | 0.03 | 0.00 | 48 | 1008.8 |
| 20260504224558 | 23 | 338 | 3.2 | 11.3 | 0.00 | 0.03 | 0.00 | 47 | 1008.8 |
| 20260504223518 | 23 | 12 | 1.6 | 9.7 | 0.00 | 0.03 | 0.00 | 48 | 1008.9 |
| 20260504222537 | 23 | 345 | 3.2 | 14.5 | 0.00 | 0.03 | 0.00 | 47 | 1008.8 |
| 20260504221518 | 23 | 0 | 3.2 | 14.5 | 0.00 | 0.03 | 0.00 | 46 | 1008.9 |
| 20260504220518 | 23 | 355 | 3.2 | 14.5 | 0.00 | 0.03 | 0.00 | 46 | 1009.0 |
| 20260504215518 | 24 | 356 | 3.2 | 11.3 | 0.00 | 0.03 | 0.00 | 48 | 1008.9 |
| 20260504214518 | 25 | 7 | 3.2 | 9.7 | 0.00 | 0.03 | 0.00 | 46 | 1009.0 |
| 20260504213519 | 25 | 327 | 3.2 | 12.9 | 0.00 | 0.03 | 0.00 | 46 | 1009.0 |
| 20260504212519 | 25 | 348 | 3.2 | 9.7 | 0.00 | 0.03 | 0.00 | 47 | 1009.1 |
| 20260504211516 | 24 | 15 | 4.8 | 17.7 | 0.00 | 0.03 | 0.00 | 47 | 1009.3 |
| 20260504210516 | 25 | 356 | 3.2 | 11.3 | 0.00 | 0.03 | 0.00 | 49 | 1009.3 |
| 20260504205536 | 25 | 6 | 3.2 | 8.0 | 0.00 | 0.03 | 0.00 | 49 | 1009.4 |
| 20260504204516 | 25 | 56 | 1.6 | 4.8 | 0.00 | 0.03 | 0.00 | 48 | 1009.5 |
| 20260504203519 | 25 | 342 | 1.6 | 8.0 | 0.00 | 0.03 | 0.00 | 48 | 1009.6 |
| 20260504202519 | 25 | 334 | 3.2 | 8.0 | 0.00 | 0.03 | 0.00 | 48 | 1009.8 |
| 20260504201520 | 25 | 0 | 3.2 | 8.0 | 0.00 | 0.03 | 0.00 | 48 | 1010.0 |
| 20260504200537 | 23 | 1 | 0.0 | 3.2 | 0.00 | 0.03 | 0.00 | 52 | 1010.2 |
| 20260504195516 | 23 | 117 | 1.6 | 8.0 | 0.00 | 0.03 | 0.00 | 52 | 1010.3 |
| 20260504194517 | 24 | 348 | 3.2 | 11.3 | 0.00 | 0.03 | 0.00 | 50 | 1010.4 |
| 20260504193540 | 25 | 358 | 1.6 | 11.3 | 0.00 | 0.03 | 0.00 | 50 | 1010.5 |
| 20260504192517 | 25 | 351 | 1.6 | 6.4 | 0.00 | 0.03 | 0.00 | 51 | 1010.7 |
| 20260504191517 | 25 | 354 | 3.2 | 12.9 | 0.00 | 0.03 | 0.00 | 49 | 1010.9 |
| 20260504190518 | 23 | 125 | 3.2 | 8.0 | 0.00 | 0.03 | 0.00 | 52 | 1011.1 |
| 20260504185538 | 23 | 19 | 3.2 | 8.0 | 0.00 | 0.03 | 0.00 | 52 | 1011.2 |
| 20260504184518 | 22 | 87 | 1.6 | 8.0 | 0.00 | 0.03 | 0.00 | 57 | 1011.2 |
| 20260504183518 | 22 | 81 | 3.2 | 8.0 | 0.00 | 0.03 | 0.00 | 57 | 1011.3 |
| 20260504182518 | 22 | 73 | 3.2 | 11.3 | 0.00 | 0.03 | 0.00 | 57 | 1011.3 |
| 20260504181518 | 22 | 127 | 3.2 | 11.3 | 0.00 | 0.03 | 0.00 | 57 | 1011.2 |
| 20260504180516 | 22 | 84 | 3.2 | 8.0 | 0.00 | 0.03 | 0.00 | 56 | 1011.1 |
| 20260504175519 | 21 | 3 | 3.2 | 12.9 | 0.00 | 0.03 | 0.00 | 55 | 1011.0 |
| 20260504174519 | 21 | 40 | 3.2 | 8.0 | 0.00 | 0.03 | 0.00 | 56 | 1011.1 |
| 20260504173559 | 21 | 20 | 3.2 | 11.3 | 0.00 | 0.03 | 0.00 | 56 | 1011.1 |
| 20260504172517 | 21 | 7 | 3.2 | 9.7 | 0.00 | 0.03 | 0.00 | 57 | 1011.2 |
| 20260504171536 | 20 | 46 | 3.2 | 8.0 | 0.00 | 0.03 | 0.00 | 59 | 1011.1 |
| 20260504170516 | 20 | 93 | 3.2 | 9.7 | 0.00 | 0.03 | 0.00 | 58 | 1011.2 |
| 20260504150518 | 20 | 54 | 3.2 | 6.4 | 0.00 | 0.03 | 0.00 | 57 | 1011.7 |
| 20260504140518 | 18 | 36 | 3.2 | 8.0 | 0.00 | 0.03 | 0.00 | 57 | 1011.5 |
| 20260504130520 | 12 | 32 | 1.6 | 4.8 | 0.00 | 0.03 | 0.00 | 70 | 1011.9 |
| 20260504110516 | 11 | 1 | 1.6 | 6.4 | 0.00 | 0.03 | 0.00 | 68 | 1012.0 |